User: anonymous   Login
Location: El Mouella
(16.4949°N, 9.1594°W)
Time: 03:25:44
(UTC+00:00)
Language:

Cosmos 909 Rocket - Orbit

View from above orbital plane
View from above orbital plane
View from above satellite
View from above satellite

Ground track
Ground track

The orbit data is extracted from the following two-line orbital elements,

1 10011U 77036B   20221.85108176 -.00000051 +00000-0 +11602-4 0  9990
2 10011 065.8634 258.9595 0696543 149.2327 020.1038 12.32235785923636
Epoch (UTC): 08 August 2020 20:25:33
Eccentricity: 0.0696543
inclination: 65.8634°
perigee height: 988 km
apogee height: 2091 km
right ascension of ascending node: 258.9595°
argument of perigee: 149.2327°
revolutions per day: 12.32235785
mean anomaly at epoch: 20.1038°
orbit number at epoch: 92363

The dashed part of the orbit path shows where the satellite is in the earth's shadow,  

DLR